AirNav   Bose ProFlight Series 2 Headset
 
 655 users online  

48X Airport Manatee
Palmetto, Florida, USA

GOING TO PALMETTO?


FAA INFORMATION EFFECTIVE 27 FEBRUARY 2020

Location

FAA Identifier: 48X
Lat/Long: 27-38-33.3500N 082-31-11.7000W
27-38.555833N 082-31.195000W
27.6425972,-82.5199167
(estimated)
Elevation: 27 ft. / 8 m (estimated)
Variation: 02W (1985)
From city: 7 miles NE of PALMETTO, FL
Time zone: UTC -5 (UTC -4 during Daylight Saving Time)
Zip code: 34221

Airport Operations

Airport use: Open to the public
Activation date: 05/1977
Control tower: no
ARTCC: MIAMI CENTER
FSS: SAINT PETERSBURG FLIGHT SERVICE STATION
NOTAMs facility: PIE (NOTAM-D service available)
Attendance: SAT 0900-1200, ALL MON-FRI 0900-1700
CALL AMGR FOR AFTER HRS SVC AND CHECK RY CONDITIONS 941-722-9296.
Wind indicator: yes
Segmented circle: yes
Lights: LIRL RWY 7/25 AVBL BY PHONE REQUEST 941-722-9296.

Airport Communications

CTAF: 122.9
WX ASOS at SPG (9 nm NW): 118.875 (727-821-4334)
WX ASOS at SRQ (15 nm S): 124.375 (941-355-8482)
WX AWOS-3 at TPF (17 nm N): 118.925 (813-251-6824)
WX ASOS at PIE (18 nm NW): PHONE 727-531-3456
WX ASOS at TPA (20 nm N): PHONE 813-873-7228

Nearby radio navigation aids

VOR radial/distance  VOR name  Freq  Var
SRQr014/14.3SARASOTA VOR/DME117.0005W
PIEr156/18.1ST PETERSBURG VORTAC116.4005W
LALr231/33.9LAKELAND VORTAC116.0001E

Airport Services

Fuel available: 100LL
FUEL AVBL DAILY SR-SS.
Parking: hangars and tiedowns
Airframe service: MINOR
Powerplant service: MINOR

Runway Information

Runway 7/25

Dimensions: 3120 x 100 ft. / 951 x 30 m
Surface: turf, in good condition
Runway edge lights: low intensity
Runway edge markings: RY 07 AND 25 THLDS MARKED BY THREE GREEN LGTS AND ONE BUCKET ON EACH SIDE OF RY.
RUNWAY 7  RUNWAY 25
Latitude: 27-38.496667N27-38.615000N
Longitude: 082-31.476667W082-30.913333W
Traffic pattern: rightleft
Obstructions: 38 ft. trees, 745 ft. from runway, 125 ft. left of centerline, 20:1 slope to clear
8 FT TREES 90-100 FT S OF RY CNTRLN FULL LENGTH. ACFT HANGARS 135 FT L OF CNTRLN FIRST HALF OF RY 07. ACFT PARKED 100 FT R OF CNTRLN FIRST 1/3 OF RY 25.
12 ft. brush, 235 ft. from runway, 95 ft. right of centerline, 20:1 slope to clear

Airport Ownership and Management from official FAA records

Ownership: Privately-owned
Owner: REEDER FARMS LLC
14108 U.S. HIGHWAY 41 NORTH
PALMETTO, FL 34221
Phone 941-722-9296
CONTACT PERSON: TOM REEDER: 941-722-9296
Manager: TOM REEDER
14108 U.S. HIGHWAY 41 NORTH
PALMETTO, FL 34221
Phone 941-722-9296
AIRPORT PHYSICAL ADDRESS: 14108 U.S. HIGHWAY 41 NORTH; FAX: 941-721-9067

Airport Operational Statistics

Aircraft based on the field: 55
Single engine airplanes: 39
Ultralights: 16
    
Aircraft operations: avg 136/week *
70% local general aviation
28% transient general aviation
1% military
* for 12-month period ending 13 December 2017

Additional Remarks

BIRDS, WILDLIFE AND DEER ON AND INVOF ARPT.
RY 07/25 FIRST 500 FT EAST END SOFT AFTER HEAVY SEASONAL RAINS.
RY 7/25 SPRINKLERS ACTIVE MON-THU 2000-0500.
AIRPORT CLSD TO TURBINE HELI OPS INCLUDING HOVER AND PRACTICE MANUEVERS AT NE FIELD ADJ TO RWY 7/25 EXC BELL JET RANGERS, EMERG. CALL IN ADVANCE 941-722-9296.
FOR CD CTC TAMPA APCH AT 813-878-2528

Instrument Procedures

There are no published instrument procedures at 48X.

Some nearby airports with instrument procedures:

KSPG - Albert Whitted Airport (9 nm NW)
KMCF - MacDill Air Force Base (12 nm N)
KSRQ - Sarasota/Bradenton International Airport (15 nm S)
KTPF - Peter O Knight Airport (17 nm N)
KPIE - St Pete-Clearwater International Airport (18 nm NW)
KTPA - Tampa International Airport (20 nm N)
 
Loc | Ops | Rwys | IFR | FBO | Links
Com | Nav | Svcs | Stats | Notes


 
Area around 48X (Airport Manatee)
 
Road maps at: MapQuest Bing Google
 
Aerial photo
WARNING: Photo may not be current or correct
Aerial photo of 48X (Airport Manatee)
Photo courtesy of PhotosFromTheAir.com
Photo taken 26-Apr-2012
looking northeast.

Do you have a better or more recent aerial photo of Airport Manatee that you would like to share? If so, please send us your photo.

 
Sectional chart

 
Airport distance calculator
Flying to Airport Manatee? Find the distance to fly.

From to 48X

Sunrise and sunset
Times for 28-Feb-2020
 Local
(UTC-5)
 Zulu
(UTC)
Morning civil twilight06:3311:33
Sunrise06:5711:57
Sunset18:2923:29
Evening civil twilight18:5223:52

Current date and time
Zulu (UTC)  28-Feb-2020 06:32:19
Local (UTC-5)  28-Feb-2020 01:32:19
 
METAR
KSPG 
10nm NW 
280553Z AUTO 31004KT 10SM CLR 11/06 A3022 RMK AO2 SLP234 T01110056 10117 20106 58002
KMCF 
12nm N 
280556Z AUTO 34008KT 10SM FEW029 11/05 A3023 RMK AO2 SLP240 T01080049 10108 20099 58003 FZRANO $
KSRQ 
15nm S 
280553Z AUTO 34005KT 10SM FEW034 11/06 A3022 RMK AO2 SLP233 T01060056 10117 20094 58002
KTPF 
17nm N 
280615Z AUTO 33003KT 10SM OVC110 10/07 A3025 RMK AO2
KPIE 
19nm NW 
280553Z AUTO 30006KT 10SM CLR 10/04 A3024 RMK AO2 SLP240 T01000044 10106 20094 58002
KTPA 
19nm N 
280553Z 32006KT 10SM CLR 09/04 A3025 RMK AO2 SLP241 T00890039 10106 20083 58002
TAF
KMCF 
12nm N 
280100Z 2801/2907 31015KT 9999 SKC QNH3021INS TX14/2820Z TN09/2811Z
KSRQ 
15nm S 
280527Z 2806/2906 34005KT P6SM FEW030 FM281500 34009KT P6SM FEW030 SCT200 FM290000 31006KT P6SM SKC
KPIE 
19nm NW 
280527Z 2806/2906 29005KT P6SM FEW030 FM281800 32010KT P6SM FEW030 SCT200 FM290000 29008KT P6SM SKC
KTPA 
19nm N 
280527Z 2806/2912 32006KT P6SM FEW030 FM281800 29010KT P6SM FEW030 SCT200 FM290000 29006KT P6SM SKC
NOTAMs
Click for the latest NOTAMs
NOTAMs are issued by the DoD/FAA and will open in a separate window not controlled by AirNav.

 

 
 

FBO, Fuel Providers, and Aircraft Ground Support

  
 Business Name 
 
 Contact 
 
 Services / Description 
 
Fuel Prices
 
Comments
  
Airport Manatee 941-722-9296
[web site]
[email]
Airport management, Aviation fuel, Aircraft parking (ramp or tiedown), Hangars, Hangar leasing / sales, Passenger terminal and lounge, Flight training, ...

More info about Airport Manatee
independent
100LL
SS $3.78 
 Updated 13-Feb-2020
 
   2 read write
SS=Self service
Update Fuel Prices
 

Would you like to see your business listed on this page?

 If your business provides an interesting product or service to pilots, flight crews, aircraft, or users of the Airport Manatee, you should consider listing it here.  To start the listing process, click on the button below
 
Add a business
 

Other Pages about Airport Manatee

airportmanatee48x.com
 
Update a link
 
Copyright © AirNav, LLC. All rights reserved. Privacy Policy  Contact